Location: Phoenix
(33.4480°N, 112.0730°W)
Time: 13:42:20
(UTC-07:00)

Cosmos 1470 Rocket - Visible Passes

Search period start: 23 May 2017 00:00
Search period end: 02 June 2017 00:00
Orbit: 603 x 635 km, 82.5° (Epoch: 22 May)

Date Brightness Start Highest point End Pass type
(mag) Time Alt. Az. Time Alt. Az. Time Alt. Az.
23 May 5.8 03:20:41 10° SE 03:23:56 21° E 03:27:12 10° NE visible
24 May 4.6 03:37:34 13° SSE 03:41:08 42° E 03:45:13 10° NNE visible
25 May 3.4 03:55:18 18° S 03:58:24 89° ESE 04:02:44 10° N visible
26 May 6.3 02:37:06 10° ESE 02:38:24 11° E 02:39:42 10° ENE visible
26 May 3.9 04:12:59 19° SW 04:15:46 43° W 04:19:54 10° N visible
27 May 5.6 02:53:26 16° SE 02:55:31 22° E 02:58:53 10° NE visible
27 May 4.9 04:30:37 13° WSW 04:33:14 22° WNW 04:36:36 10° NNW visible
28 May 4.4 03:11:03 30° SE 03:12:42 45° E 03:16:50 10° NNE visible
28 May 5.6 04:49:30 10° W 04:50:47 11° WNW 04:52:05 10° NW visible
29 May 3.4 03:28:38 43° S 03:30:00 85° W 03:34:19 10° N visible
30 May 6.2 02:09:00 11° E 02:09:58 12° E 02:11:36 10° ENE visible
30 May 4.0 03:46:10 33° WSW 03:47:21 40° W 03:51:27 10° N visible
31 May 5.3 02:26:32 23° ESE 02:27:05 24° E 02:30:32 10° NE visible
31 May 5.0 04:03:42 19° W 04:04:49 21° WNW 04:08:06 10° NNW visible
01 Jun 4.1 02:44:02 47° ESE 02:44:16 48° E 02:48:26 10° NNE visible
01 Jun 5.7 04:21:36 10° W 04:22:24 10° WNW 04:23:12 10° WNW visible
